Location: São Paulo
(23.5507°S, 46.6334°W)
Time: 06:40:33
(UTC-03:00)

Explorer 7 - Pass Details

Date: 21 February 2026
Orbit: 430 x 541 km, 50.2° (Epoch: 10 March)

Event Time Altitude Azimuth Distance (km) Brightness Sun altitude
Rises 01:50:31 0° 269° (W) 2,706 - -49.4°
Reaches altitude 10° 01:54:38 10° 229° (SW) 1,809 - -48.8°
Maximum altitude 01:55:33 11° 216° (SW) 1,768 - -48.7°
Drops below altitude 10° 01:56:28 10° 203° (SSW) 1,804 - -48.6°
Sets 02:00:33 0° 163° (SSE) 2,676 - -48.0°
